INTELSAT 31 (IS-31)

Last updated on Tue Sep 22 2026 00:03:13 GMT+0000 (Coordinated Universal Time)

1 41581U 16035A 26264.51291390 -.00000155 00000+0 00000+0 0 9994 2 41581 0.0181 220.1970 0001604 11.4866 218.3227 1.00270742 37647
UTC large
Height (km)
Speed (km/s)
/
Latitude / Longitude
Inclination (degrees)
Orbital Period (minutes)
Azimuth
Elevation
Range (km)
Doppler Factor

Next 0 passes for location: London (51.5072 / 0.1276)

No passes found over London.
INTELSAT 31 (IS-31)